Content
SEND FEEDBACK

Daily
Averages
Monthly
Summary
Greece

THESSALONIKI, GREECE


Home > Europe > Greece
Elevation: 13 feet     Latitude: 40 13N     Longitude: 022 58E

WEATHER
 
SELECT A DAY
Number of Records: 102,882;   Date Range: 7/3/96 - 12/16/14
 
SHARE

PRINT THIS DATA

[ ← Previous Day ]
WEATHER ALMANAC - APRIL 28, 2013
[ Next Day → ]
[ °C ]   °F
Weather ElementAverageHighLow
Temperature66.4 °F80.6 °F (5:20 pm)53.6 °F (3:20 am)
Dewpoint51.5 °F57.2 °F (4:50 pm)46.4 °F (3:50 am)
Humidity60.7 %82 % (12:50 am)25 % (3:00 pm)
Barometer29.98 in30.06 in (11:20 pm)29.92 in (3:50 am)
Wind Speed5.3 mph10.4 mph (5:20 pm)
Weather ElementAverage
Visibility6.2 mi
Wind DirectionSE (136.5 °)

Weather ElementTotal
Precipitation---
Cooling Degree Days2.1 (Base 65)
Growing Degree Days17.1 (Base 50)
Averaged from 50 records on April 28, 2013
WEATHER CONDITIONS BREAKOUT
WIND DIRECTION BREAKOUT
WEATHER BY HOUR - APRIL 28, 2013
[ °C ]   °F
Local TimeTemperatureDewpointHumidityBarometerVisibilityWind DirectionWind SpeedGust SpeedPrecipitationEventsConditions
12:50 AM57.2 °F51.8 °F82 %29.95 in6.2 miEast (100°)4.6 mphPartly Cloudy
1:20 AM59.0 °F53.6 °F82 %29.95 in6.2 miVariable2.3 mphPartly Cloudy
1:50 AM59.0 °F51.8 °F77 %29.95 in6.2 miVariable3.5 mphPartly Cloudy
2:20 AM55.4 °F50.0 °F82 %29.95 in6.2 miESE (120°)3.5 mphPartly Cloudy
3:00 AM55.0 °F50.0 °F77 %29.95 in6.0 miESE (120°)4.6 mphScattered Clouds
3:20 AM53.6 °F48.2 °F82 %29.95 in6.2 miEast (100°)5.8 mphPartly Cloudy
3:50 AM53.6 °F46.4 °F77 %29.92 in6.2 miESE (120°)8.1 mphPartly Cloudy
4:20 AM53.6 °F46.4 °F77 %29.95 in6.2 miESE (120°)5.8 mphPartly Cloudy
4:50 AM53.6 °F48.2 °F82 %29.92 in6.2 miESE (110°)6.9 mphPartly Cloudy
5:20 AM53.6 °F46.4 °F77 %29.92 in6.2 miESE (110°)9.2 mphScattered Clouds
5:50 AM53.6 °F48.2 °F82 %29.92 in6.2 miESE (120°)4.6 mphScattered Clouds
6:20 AM53.6 °F48.2 °F82 %29.92 in6.2 miEast (100°)5.8 mphScattered Clouds
6:50 AM55.4 °F48.2 °F77 %29.95 in6.2 miSE (140°)4.6 mphScattered Clouds
7:20 AM55.4 °F48.2 °F77 %29.95 in6.2 miEast (80°)5.8 mphMostly Cloudy
7:50 AM57.2 °F50.0 °F77 %29.95 in6.2 miVariable3.5 mphMostly Cloudy
8:20 AM60.8 °F51.8 °F72 %29.95 in6.2 miVariable2.3 mphMostly Cloudy
8:50 AM62.6 °F55.4 °F77 %29.98 in6.2 miVariable3.5 mphMostly Cloudy
9:00 AM63.0 °F55.0 °F69 %29.98 in6.0 mi°3.5 mphScattered Clouds
9:20 AM64.4 °F55.4 °F73 %29.98 in6.2 miCalmMostly Cloudy
9:50 AM68.0 °F53.6 °F60 %29.98 in6.2 miVariable3.5 mphMostly Cloudy
10:20 AM68.0 °F55.4 °F64 %30.01 in6.2 miVariable3.5 mphMostly Cloudy
10:50 AM69.8 °F55.4 °F60 %30.01 in6.2 miVariable2.3 mphMostly Cloudy
11:20 AM73.4 °F50.0 °F44 %30.01 in6.2 miVariable3.5 mphMostly Cloudy
11:50 AM73.4 °F50.0 °F44 %30.01 in6.2 miWest (270°)4.6 mphMostly Cloudy
12:20 PM71.6 °F53.6 °F53 %30.01 in6.2 miWNW (290°)6.9 mphMostly Cloudy
12:50 PM71.6 °F53.6 °F53 %30.01 in6.2 miWNW (300°)5.8 mphMostly Cloudy
1:20 PM73.4 °F53.6 °F50 %30.01 in6.2 miNW (320°)4.6 mphMostly Cloudy
1:50 PM75.2 °F51.8 °F44 %30.01 in6.2 miNW (320°)4.6 mphMostly Cloudy
2:20 PM75.2 °F48.2 °F38 %30.01 in6.2 miWNW (300°)5.8 mphMostly Cloudy
2:50 PM77.0 °F48.2 °F36 %30.01 in6.2 miWest (280°)4.6 mphMostly Cloudy
3:00 PM77.0 °F48.0 °F25 %30.01 in6.0 miWest (280°)4.6 mphScattered Clouds
3:20 PM78.8 °F48.2 °F34 %29.98 in6.2 miWNW (300°)4.6 mphMostly Cloudy
3:50 PM77.0 °F51.8 °F41 %29.98 in6.2 miNW (310°)5.8 mphMostly Cloudy
4:20 PM77.0 °F53.6 °F44 %29.98 in6.2 miWNW (290°)5.8 mphMostly Cloudy
4:50 PM78.8 °F57.2 °F47 %29.98 inWest (280°)8.1 mphClear
5:20 PM80.6 °F50.0 °F34 %29.98 inSSW (200°)10.4 mphClear
5:50 PM78.8 °F50.0 °F36 %29.98 inSouth (180°)10.4 mphClear
6:20 PM78.8 °F51.8 °F39 %29.98 inSSW (200°)9.2 mphClear
6:50 PM75.2 °F53.6 °F47 %29.98 inSouth (170°)10.4 mphClear
7:20 PM75.2 °F53.6 °F47 %29.98 inSSE (160°)10.4 mphClear
7:50 PM73.4 °F53.6 °F50 %29.98 inSSE (150°)8.1 mphClear
8:20 PM71.6 °F53.6 °F53 %30.01 inSouth (170°)8.1 mphClear
8:50 PM69.8 °F53.6 °F56 %30.01 inSouth (170°)9.2 mphClear
9:00 PM71.0 °F53.0 °F42 %30.01 in6.0 miSouth (170°)9.2 mphClear
9:20 PM66.2 °F53.6 °F64 %30.01 inESE (120°)4.6 mphClear
9:50 PM64.4 °F53.6 °F68 %30.04 inCalmClear
10:20 PM64.4 °F53.6 °F68 %30.04 inCalmClear
10:50 PM62.6 °F53.6 °F72 %30.04 inVariable2.3 mphClear
11:20 PM62.6 °F51.8 °F68 %30.06 inVariable3.5 mphClear
11:50 PM60.8 °F51.8 °F72 %30.06 inESE (120°)4.6 mphClear
Hourly data recorded from LGTS, located miles away from Thessaloniki, Greece







STORIES FROM OUR PARTNERS